Content
SEND FEEDBACK

Daily
Averages
Monthly
Summary
United States of America

DEDEDO, GUAM


Home > North America > United States > Guam
Elevation: 364 feet     Latitude: 13 33N     Longitude: 144 49E

WEATHER
 
SELECT A DAY
Number of Records: 209,133;   Date Range: 1/1/95 - 8/28/14
 
SHARE

PRINT THIS DATA

[ ← Previous Day ]
WEATHER ALMANAC - SEPTEMBER 25, 2013
[ Next Day → ]
[ °C ]   °F
Weather ElementAverageHighLow
Temperature83.6 °F90 °F (1:54 pm)79 °F (1:54 am)
Dewpoint77.7 °F79 °F (7:54 am)75 °F (1:54 pm)
Humidity83.3 %97 % (1:54 am)61 % (1:54 pm)
Barometer29.81 in29.87 in (9:54 pm)29.75 in (12:54 pm)
Wind Speed5.6 mph12.7 mph (3:54 pm)
Wind Gust18.4 mph (3:54 pm)
Weather ElementAverage
Visibility10 mi
Wind DirectionSSE (146.1 °)

Weather ElementTotal
Precipitation---
Cooling Degree Days19.5 (Base 65)
Growing Degree Days34.5 (Base 50)
Averaged from 23 records on September 25, 2013
WEATHER CONDITIONS BREAKOUT
WIND DIRECTION BREAKOUT
WEATHER BY HOUR - SEPTEMBER 25, 2013
[ °C ]   °F
Local TimeTemperatureDewpointHumidityBarometerVisibilityWind DirectionWind SpeedGust SpeedPrecipitationEventsConditions
1:54 AM79.0 °F78.1 °F97 %29.78 in10.0 miSouth (180°)4.6 mphPartly Cloudy
2:54 AM79.0 °F78.1 °F97 %29.78 in10.0 miSSE (160°)3.5 mphClear
3:54 AM79.0 °F78.1 °F97 %29.78 in10.0 miSSE (160°)3.5 mphScattered Clouds
4:54 AM79.0 °F78.1 °F97 %29.78 in10.0 miSSE (150°)3.5 mphClear
5:54 AM79.0 °F77.0 °F94 %29.79 in10.0 miCalmPartly Cloudy
6:54 AM80.1 °F78.1 °F94 %29.81 in10.0 miSSE (160°)3.5 mphPartly Cloudy
7:54 AM82.9 °F79.0 °F88 %29.83 in10.0 miSouth (190°)6.9 mphPartly Cloudy
8:54 AM84.0 °F79.0 °F85 %29.83 in10.0 miSouth (180°)6.9 mphPartly Cloudy
9:54 AM87.1 °F78.1 °F74 %29.82 in10.0 miSouth (190°)6.9 mphPartly Cloudy
10:54 AM88.0 °F75.9 °F67 %29.81 in10.0 miSouth (180°)11.5 mph16.1 mphScattered Clouds
11:54 AM89.1 °F77.0 °F67 %29.79 in10.0 miSW (220°)10.4 mphMostly Cloudy
12:54 PM89.1 °F77.0 °F67 %29.75 in10.0 miSW (220°)10.4 mphPartly Cloudy
1:54 PM90.0 °F75.0 °F61 %29.75 in10.0 miSW (220°)11.5 mphScattered Clouds
2:54 PM88.0 °F77.0 °F70 %29.76 in10.0 miSW (220°)10.4 mphMostly Cloudy
3:54 PM87.1 °F77.0 °F72 %29.77 in10.0 miWSW (250°)12.7 mph18.4 mphScattered Clouds
4:54 PM86.0 °F77.0 °F74 %29.79 in10.0 miWSW (240°)11.5 mphScattered Clouds
5:54 PM84.0 °F78.1 °F82 %29.81 in10.0 miSW (230°)6.9 mphPartly Cloudy
6:54 PM82.9 °F78.1 °F85 %29.83 in10.0 miSSW (210°)4.6 mphPartly Cloudy
7:54 PM82.9 °F78.1 °F85 %29.85 in10.0 miCalmClear
8:54 PM82.0 °F78.1 °F88 %29.86 in10.0 miCalmClear
9:54 PM82.0 °F78.1 °F88 %29.87 in10.0 miCalmPartly Cloudy
10:54 PM81.0 °F79.0 °F94 %29.86 in10.0 miCalm0.00 inScattered Clouds
11:54 PM81.0 °F79.0 °F94 %29.85 in10.0 miCalmClear
Hourly data recorded from PGUM, located miles away from Dededo, Guam







STORIES FROM OUR PARTNERS